Location: Unspecified
(0.0000°N, 0.0000°E)
Time: 02:18:33
(UTC+00:00)

Envisat - Pass Details

Date: 25 February 2021
Orbit: 764 x 766 km, 98.1° (Epoch: 24 February)

Event Time Altitude Azimuth Distance (km) Brightness Sun altitude
Rises 05:33:40 0° 3° (N) 3,213 6.2 -9.7°
Reaches altitude 10° 05:36:00 10° 358° (N) 2,290 5.4 -9.2°
Maximum altitude 05:40:54 53° 282° (WNW) 930 3.1 -7.9°
Drops below altitude 10° 05:45:51 10° 205° (SSW) 2,301 5.3 -6.7°
Sets 05:48:12 0° 201° (SSW) 3,229 6.1 -6.1°
